Regional Weather Roundup
Issued by NWS Cleveland, OH

Home | Current Version | Previous Version | Text Only | Print | Product List | Glossary Off
Versions: 1 2 3 4 5 6 7 8 9 10 11 12 13 14 15 16 17 18 19 20 21 22 23 24 25 26 27 28 29 30 31 32 33 34 35 36 37 38 39 40 41 42 43 44 45 46 47 48 49 50

000
ASUS41 KCLE 210602
RWRCLE
OHIO REGIONAL WEATHER ROUNDUP
NATIONAL WEATHER SERVICE CLEVELAND, OH
100 AM EST SAT JAN 21 2017

NOTE: "FAIR" INDICATES FEW OR NO CLOUDS BELOW 12,000 FEET WITH NO
SIGNIFICANT WEATHER AND/OR OBSTRUCTIONS TO VISIBILITY.

OHZ001>008-015>018-024>027-034-035-043-044-210700-
   NORTHWEST OHIO

CITY           SKY/WX    TMP DP  RH WIND       PRES   REMARKS
DEFIANCE       CLOUDY    47  46  97 SE6       29.72F
FINDLAY        CLOUDY    50  44  80 SE7       29.73F
TOLEDO EXPRESS CLOUDY    46  46 100 S5        29.73F FOG
TOLEDO EXEC    CLOUDY    46  46 100 SE5       29.75F FOG
LIMA           CLOUDY    50  47  89 S9        29.73F
$$

OHZ009>014-019>023-028>033-038-089-210700-
   NORTHEAST OHIO

CITY           SKY/WX    TMP DP  RH WIND       PRES   REMARKS
CLE-HOPKINS    MOCLDY    47  43  86 S5        29.80F FOG
CLE-LAKEFRONT  CLEAR     46  45  96 SE3       29.77S FOG
CUY CO. ARPT   NOT AVBL
LORAIN-ELYRIA  FOG       42  40  92 S3        29.78S VSB 1/2
ASHTABULA      FOG       45  45 100 SE3       29.80S VSB 1/4
AKRON-CANTON   CLEAR     46  44  93 S6        29.80S FOG
WOOSTER        FOG       38  38 100 CALM      29.80R VSB 1/4
MANSFIELD      PTCLDY    43  42  97 S5        29.78F
YOUNGSTOWN     MOCLDY    49  46  90 S5        29.81S
$$

OHZ042-051>053-060>062-070>072-077>081-210700-
  SOUTHWEST OHIO

CITY           SKY/WX    TMP DP  RH WIND       PRES   REMARKS
CINC-COVINGTON CLOUDY    51  47  86 S7        29.74F
CINC-LUNKEN    FOG       43  43 100 CALM      29.76F VSB 1/2
HAMILTON       PTCLDY    44  44 100 CALM      29.75F
DAYTON         MOCLDY    49  47  93 SE9       29.75F
WRIGHT-PAT AFB MOCLDY    49  49 100 CALM      29.75F
DAYTON GENERAL NOT AVBL
WILMINGTON     PTCLDY    47  45  93 SE5       29.76F
$$

OHZ036-037-039>041-045>050-054>059-063>069-073>076-082>088-210700-
  CENTRAL AND SOUTHEAST OHIO

CITY           SKY/WX    TMP DP  RH WIND       PRES   REMARKS
COLUMBUS       CLOUDY    50  47  89 SE3       29.78S
OSU AIRPORT    CLOUDY    47  47 100 E3        29.77F FOG
BOLTON FIELD   NOT AVBL
RICKENBACK AFB NOT AVBL
NEWARK         FOG       39  38  96 CALM      29.79S VSB 1/2
MARION         CLOUDY    47  45  93 S10       29.77F FOG
LANCASTER      PTCLDY    44  43  96 CALM      29.79S FOG
ZANESVILLE     CLEAR     42  40  92 CALM      29.80S FOG
NEW PHILLY     NOT AVBL
$$




USA.gov is the U.S. government's official web portal to all federal, state and local government web resources and services.